Regional Weather Roundup
Issued by NWS

Home | Current Version | Previous Version | Graphics & Text | Print | Product List | Glossary On
Versions: 1 2 3 4 5 6 7 8 9 10 11 12 13 14 15 16 17 18 19 20 21 22 23 24 25 26 27 28 29 30 31 32 33 34 35 36 37 38 39 40 41 42 43 44 45 46 47 48 49 50
000
ASUS45 KTFX 030319
RWRMT
MONTANA HOURLY WEATHER ROUNDUP
NATIONAL WEATHER SERVICE GREAT FALLS MT
819 PM MST MON MAR 2 2015

NOTE: "FAIR" INDICATES FEW OR NO CLOUDS BELOW 12000 FEET WITH NO
SIGNIFICANT WEATHER AND/OR OBSTRUCTIONS TO VISIBILITY.

* THESE STATIONS ARE NOT UNDER NWS QUALITY CONTROL. THEY DO NOT
   REPORT WEATHER SUCH AS PRECIPITATION OR FOG.

MTZ001>007-043-030400-
WEST OF THE DIVIDE
CITY           SKY/WX    TMP DP  RH WIND       PRES   REMARKS
KALISPELL      CLOUDY    27   7  42 E16       30.02R WCI  15
MISSOULA       CLOUDY    27  16  63 E22G28    29.92R WCI  13
BUTTE          LGT SNOW  16   9  74 N21G36    29.77R VSB 1 3/4 WCI  -1
MULLAN PASS    LGT SNOW  16  12  84 VRB5      29.75R VSB 1    WCI   8
* ANACONDA     CLOUDY    16   7  67 N24G32     N/A   WCI  -2
* ESSEX        N/A       20   9  62 S4         N/A
* EUREKA APT   PTCLDY    27   3  35 NE17G25   30.05R WCI  14
* HAMILTON APT CLOUDY    27  23  85 N20       29.80R VSB 1 1/4 WCI  13
* LIBBY APT    PTCLDY    25  18  75 CALM      30.05R
* LINCOLN      N/A       16   8  71 NE12G25    N/A   WCI   3
* LOOKOUT PASS N/A       21  19  92 NW5G17     N/A   WCI  14
* POLSON       N/A       23  10  57 N4G9       N/A
* RONAN APT    CLOUDY    28  12  51 NE9        N/A   WCI  19
* SEELEY LAKE  N/A       21   6  52 NE3G13     N/A
* THOMP F APT  MOCLDY    30  10  43 NW1        N/A
$$

MTZ008-052>055-030400-
SOUTHWEST MONTANA
CITY           SKY/WX    TMP DP  RH WIND       PRES   REMARKS
BOZEMAN        CLOUDY    28  16  61 S15G23    29.77R WCI  16
DILLON         MOCLDY    21  10  62 NE21G28   29.71R WCI   5
* W YELLOWSTON MOCLDY    27   7  42 N6G12      N/A   WCI  20
* THREE FORKS  CLOUDY    25   9  50 N22G31     N/A   WCI  10
* BOULDER HILL N/A       12   7  80 N24G32     N/A   WCI  -8
* MONIDA PASS  N/A       24   5  44 NE2        N/A
* RAYNOLDS PAS N/A       18  16  92 NW26G31    N/A
* WHITEHALL    N/A       22  10  60 N18G31     N/A   WCI   8
* WISE RIVER   N/A       22   7  52 NE15G26    N/A   WCI   9
$$

MTZ009>010-012-014-046-048-049-054-030400-
EAST SLOPES AND CENTRAL MONTANA
CITY           SKY/WX    TMP DP  RH WIND       PRES   REMARKS
CUT BANK       CLOUDY    14  10  84 N18       30.09R WCI  -3
GREAT FALLS    LGT SNOW  18  14  84 NE9       30.06R WCI   7
HELENA         CLOUDY    19  10  68 N16       29.97R WCI   4
MALMSTROM AFB  LGT SNOW  18  16  92 N13       30.08R WCI   5
* CONRAD       CLOUDY    18  12  77 N7         N/A   WCI   9
* DEARBORN     N/A       18  13  81 VRB14G23    N/A   WCI   4
* EAST GLACIER N/A       12   8  84 E23        N/A   WCI  -7
* MONARCH      N/A       10   7  88 NW19G24    N/A   WCI  -8
* PENDROY      N/A       14  13  96 N9         N/A   WCI   2
* ROGERS PASS  N/A       10   6  84 S6G14      N/A
* SWEET GRASS  N/A       13   6  73 NE20G26    N/A   WCI  -5
* WHITE SULPH  N/A       16   6  64 NW11G20    N/A   WCI   3
$$

MTZ011-013-016-021-035-040-045-047-050-051-030400-
NORTH CENTRAL MONTANA
CITY           SKY/WX    TMP DP  RH WIND       PRES   REMARKS
HAVRE          CLOUDY    19   9  65 N20G29    30.10R WCI   3
LEWISTOWN      LGT SNOW  18  12  77 N17G23    29.95R VSB 2    WCI   3
* N BAR RANCH  HAZE      16  10  77 N15G25    29.91R VSB 3/4  WCI   1
* CHINOOK      CLOUDY    19   9  65 NW18G26   30.10R WCI   4
* FORT BENTON  CLOUDY    21  10  62 N8        30.11R WCI  11
* CHESTER      N/A       16   6  64 N11G20     N/A   WCI   3
* DENTON       N/A       18  12  77 NW19       N/A   WCI   2
* GEYSER       N/A       16  11  81 N12        N/A   WCI   3
* JUDITH GAP   N/A       15  15 100 N38G46     N/A   WCI  -7
* LOMA         N/A       21  12  68 NW13G18    N/A   WCI   8
$$

MTZ017>020-022>027-061-062-030400-
NORTHEAST MONTANA
CITY           SKY/WX    TMP DP  RH WIND       PRES   REMARKS
GLASGOW        CLOUDY    18   7  62 N29G35    30.00R WCI  -1
GLENDIVE       CLOUDY    19  12  74 N23G31    29.90R WCI   2
JORDAN         CLOUDY    19  14  81 N22       29.96R WCI   2
SIDNEY         CLOUDY    21  10  62 NW21G30   29.94S WCI   5
WOLF POINT     CLOUDY    21  10  62 N15       29.99R WCI   7
* BEAVER HILL  N/A       21  16  81 NW31G39    N/A   WCI   2
* CIRCLE       N/A       21  15  78 NW15G20    N/A   WCI   7
* LINDSAY DVD  N/A       18  13  81 NW27G35    N/A   WCI  -1
* NAVAJO       N/A       14   9  80 N27G37     N/A   WCI  -6
* PLENTYWOOD A CLOUDY    16  10  77 NW21G28   29.90R WCI  -1
* POPLAR APT   CLOUDY    18   9  68 N21G28    29.97R WCI   1
* SACO         N/A       19   8  62 NW16       N/A   WCI   4
* SCOBEY APT   CLOUDY    16   5  62 NW25G30    N/A   WCI  -3
$$

MTZ028>042-056>058-030400-
SOUTHCENTRAL AND SOUTHEAST MONTANA
CITY           SKY/WX    TMP DP  RH WIND       PRES   REMARKS
BAKER          CLOUDY    28  19  69 N20G25    29.79R WCI  15
BILLINGS       LGT SNOW  21  19  92 NE23G30   29.88R VSB 1    WCI   5
LIVINGSTON     LGT SNOW  23  16  74 E18G24    29.82R VSB 1 1/2 WCI   9
MILES CITY     CLOUDY    25  14  63 N22G30    29.91R WCI  10
* BIG TIMBER A CLOUDY    19  14  81 N10G18    29.87R VSB 2    WCI   8
* FORSYTH APT  PTCLDY    25  16  69 N18G29    29.91R WCI  11
* LAUREL APT   CLOUDY    25  12  58 N17G23     N/A   WCI  12
* ROUNDUP APT  CLOUDY    21   9  60 N21G30     N/A   WCI   5
* ALZADA       N/A       30  21  69 NW2        N/A
* HYSHAM       N/A       23  16  74 VRB6G17    N/A   WCI  16
* LAME DEER    N/A       24  21  88 N16G26     N/A   WCI  11
* REED POINT   N/A       25  14  63 NW11G17    N/A   WCI  14
* ROSCOE HILL  N/A       19  15  84 N10G17     N/A   WCI   8
$$

REGIONAL REPORTS...DAKOTAS
CITY           SKY/WX    TMP DP  RH WIND       PRES   REMARKS
WILLISTON      CLOUDY    19  12  74 N15       29.90R WCI   5
DICKINSON      CLOUDY    27  19  72 N20G28    29.74R WCI  13
BEACH          LGT RAIN  23  19  85 N29       29.84R WCI   6
CROSBY         CLOUDY    14  10  84 NW30G39   29.86R WCI  -7
TIOGA          LGT SNOW  16  14  92 NW17G32   29.86R
WATFORD CITY   CLOUDY    18  10  71 N21G26    29.86R WCI   1
BISMARCK       CLOUDY    30  25  82 CALM      29.72F
GRAND FORKS    MOCLDY    25  18  75 S18       29.81F WCI  11
FARGO          CLOUDY    28  18  66 S23G33    29.87F WCI  14
BUFFALO SD     CLOUDY    36  16  44 NW24G30   29.65S WCI  24
RAPID CITY     CLOUDY    39  21  48 N12       29.67R WCI  32
$$

REGIONAL REPORTS...WYOMING/IDAHO/WASHINGTON
CITY           SKY/WX    TMP DP  RH WIND       PRES   REMARKS
GILLETTE       CLOUDY    32  18  56 N14       29.68F WCI  22
SHERIDAN       CLOUDY    32  19  59 N14       29.77R WCI  22
CODY           CLOUDY    25  18  75 N23G32    29.72R WCI  10
YELLOWSTONE LA CLOUDY    21  18  88 VRB3      29.60F
SALMON         CLOUDY   N/A N/A N/A N12       29.67R
MULLAN PASS    LGT SNOW  16  12  84 VRB5      29.75S VSB 1    WCI   8
SAND POINT     PTCLDY    32  23  69 N20G25    29.98R WCI  20
SPOKANE        CLOUDY    34  30  85 CALM      29.90R
$$

REGIONAL REPORTS...ALBERTA
CITY           SKY/WX    TMP DP  RH WIND       PRES   REMARKS
CALGARY        FOG       10   3  73 N6        30.17R VSB 3
LETHBRIDGE     CLOUDY    16   3  56 N15G22    30.18R WCI   1
MEDICINE HAT   MOCLDY    14   5  67 NW17G28   30.20R WCI  -2
EDMONTON       FAIR       7  -6  55 N14       30.27R WCI -10
WATERTON GATE  N/A       12   9  88 N7         N/A   WCI   1
CARDSTON       N/A       14  12  92 NE12G17    N/A
MILK RIVER     N/A       14   7  73 N13        N/A
$$

REGIONAL REPORTS...SASKATCHEWAN
CITY           SKY/WX    TMP DP  RH WIND       PRES   REMARKS
SWIFT CURRENT  LGT SNOW   9   3  76 NW28G35   30.03R VSB 2    WCI -13
REGINA         LGT SNOW  10   7  88 NW26G33   29.95R VSB 3    WCI -11
VAL MARIE      N/A       16   9  74 N24G35     N/A   WCI  -2
ASSINIBOIA     N/A       10   5  80 N24        N/A   WCI -10
CORONACH       N/A       12   7  80 NW25G38    N/A   WCI  -8

$$



USA.gov is the U.S. government's official web portal to all federal, state and local government web resources and services.